Weather History for Orlando International, FL

Change the Weather History Date:

Friday, March 30, 2012

  Actual Average Record
Temperature  
Mean Temperature 74 °F 69 °F  
Max Temperature 86 °F 80 °F 97 °F (1907)
Min Temperature 61 °F 58 °F 38 °F (1937)
Degree Days  
Heating Degree Days 0 1  
Month to date heating degree days 8 58  
Since 1 July heating degree days 309 557  
Cooling Degree Days 9 5  
Month to date cooling degree days 214 112  
Year to date cooling degree days 355 216  
Growing Degree Days 23 (Base 50)    
Moisture  
Dew Point 59 °F    
Average Humidity 65    
Maximum Humidity 93    
Minimum Humidity 37    
Precipitation  
Precipitation 0.00 in 0.13 in 3.06 in (1926)
Month to date precipitation 0.62 3.64  
Year to date precipitation 3.89 8.37  
Sea Level Pressure  
Sea Level Pressure 30.02 in    
Wind  
Wind Speed 6 mph (SSE)    
Max Wind Speed 14 mph    
Max Gust Speed 18 mph    
Visibility 10 miles    
Events      
T = Trace of Precipitation, MM = Missing Value Source: NWS Daily Summary

Daily Weather History Graph

Daily Weather History Graph

Search for Another Location

Airport:

Trip Planner

Search our weather history database for the weather conditions in past years. The results will help you decide how hot, cold, wet, or windy it might be!

Date:

Astronomy

Mar. 30, 2012 Rise Set
Actual Time 7:17 AM EDT 7:42 PM EDT
Civil Twilight 6:53 AM EDT 8:06 PM EDT
Nautical Twilight 6:25 AM EDT 8:33 PM EDT
Astronomical Twilight 5:57 AM EDT 9:01 PM EDT
Moon 12:43 PM EDT (3/30) 1:55 AM EDT (3/30)
Length of Visible Light 13h 12m
Length of Day
12h 25m
Waxing Crescent, 49% of the Moon is Illuminated
Mar 30
Waxing Crescent
Mar 30
First Quarter
Apr 6
Full
Apr 13
Last Quarter
Apr 21
New

Hourly Weather History & Observations

Time (EDT) Temp. Heat Index Dew Point Humidity Pressure Visibility Wind Dir Wind Speed Gust Speed Precip Events Conditions
12:53 AM 68.0 °F - 59.0 °F 73% 30.04 in 10.0 mi Calm Calm - N/A   Partly Cloudy
1:53 AM 66.9 °F - 60.1 °F 79% 30.02 in 10.0 mi Calm Calm - N/A   Partly Cloudy
2:53 AM 64.9 °F - 61.0 °F 87% 30.02 in 10.0 mi Calm Calm - N/A   Clear
3:53 AM 64.0 °F - 60.1 °F 87% 30.01 in 10.0 mi Calm Calm - N/A   Clear
4:53 AM 63.0 °F - 60.1 °F 90% 30.01 in 10.0 mi Calm Calm - N/A   Clear
5:53 AM 63.0 °F - 60.1 °F 90% 30.02 in 10.0 mi Calm Calm - N/A   Clear
6:53 AM 62.1 °F - 59.0 °F 90% 30.03 in 10.0 mi South 5.8 mph - N/A   Partly Cloudy
7:53 AM 63.0 °F - 60.1 °F 90% 30.05 in 10.0 mi SSE 3.5 mph - N/A   Partly Cloudy
8:53 AM 68.0 °F - 62.1 °F 81% 30.08 in 10.0 mi Variable 3.5 mph - N/A   Scattered Clouds
9:53 AM 72.0 °F - 62.1 °F 71% 30.08 in 10.0 mi SW 4.6 mph - N/A   Scattered Clouds
10:53 AM 75.9 °F - 62.1 °F 62% 30.08 in 10.0 mi SE 8.1 mph - N/A   Mostly Cloudy
11:53 AM 79.0 °F - 63.0 °F 58% 30.06 in 10.0 mi Variable 3.5 mph - N/A   Mostly Cloudy
12:53 PM 82.0 °F 82.7 °F 61.0 °F 49% 30.04 in 10.0 mi SE 8.1 mph - N/A   Mostly Cloudy
1:53 PM 84.0 °F 83.0 °F 55.9 °F 38% 30.02 in 10.0 mi South 5.8 mph - N/A   Scattered Clouds
2:53 PM 84.9 °F 83.9 °F 57.0 °F 38% 29.99 in 10.0 mi SE 11.5 mph 16.1 mph N/A   Mostly Cloudy
3:53 PM 82.9 °F 82.4 °F 57.0 °F 41% 29.99 in 10.0 mi South 8.1 mph - N/A   Mostly Cloudy
4:53 PM 82.0 °F 82.0 °F 57.9 °F 44% 29.98 in 10.0 mi SSE 10.4 mph - N/A   Mostly Cloudy
5:53 PM 82.0 °F 82.0 °F 57.9 °F 44% 29.99 in 10.0 mi SSE 9.2 mph - N/A   Overcast
6:53 PM 80.1 °F 80.7 °F 59.0 °F 48% 29.99 in 10.0 mi SE 6.9 mph - N/A   Overcast
7:53 PM 75.9 °F - 57.0 °F 52% 29.99 in 10.0 mi SE 10.4 mph - N/A   Overcast
8:53 PM 73.9 °F - 55.0 °F 52% 29.99 in 10.0 mi ESE 6.9 mph - N/A   Mostly Cloudy
9:53 PM 73.0 °F - 55.0 °F 53% 30.01 in 10.0 mi SSE 5.8 mph - N/A   Overcast
10:53 PM 71.1 °F - 55.9 °F 59% 30.03 in 10.0 mi SSE 6.9 mph - N/A   Overcast
11:53 PM 72.0 °F - 57.0 °F 59% 30.01 in 10.0 mi SSE 10.4 mph - N/A   Mostly Cloudy